Regional Weather Roundup
Issued by NWS

Home | Current Version | Previous Version | Graphics & Text | Print | Product List | Glossary On
Versions: 1 2 3 4 5 6 7 8 9 10 11 12 13 14 15 16 17 18 19 20 21 22 23 24 25 26 27 28 29 30 31 32 33 34 35 36 37 38 39 40 41 42 43 44 45 46 47 48 49 50
000
ASUS43 KLOT 300404
RWRIL

ILLINOIS REGIONAL WEATHER ROUNDUP
NATIONAL WEATHER SERVICE CHICAGO/ROMEOVILLE IL
1100 PM CDT MON MAY 29 2017

NOTE: "FAIR" INDICATES FEW OR NO CLOUDS BELOW 12,000 FEET WITH NO
SIGNIFICANT WEATHER AND/OR OBSTRUCTIONS TO VISIBILITY.

* THESE STATIONS ARE NOT UNDER NWS QUALITY CONTROL. THEY ALSO MAY NOT
  REPORT WEATHER SUCH AS PRECIPITATION OR FOG.

ILZ001-002-007-009-015-016-024-300500-
NORTHWEST ILLINOIS

CITY           SKY/WX    TMP DP  RH WIND       PRES   REMARKS
MOLINE         CLEAR     61  45  55 W6        29.93R
STERLING*      CLEAR     59  48  67 W6        29.92R
SAVANNA*       CLEAR     63  47  55 W7        29.91S
$$

ILZ003-004-008-010-011-017-018-300500-
NORTH CENTRAL ILLINOIS

CITY           SKY/WX    TMP DP  RH WIND       PRES   REMARKS
ROCKFORD       CLEAR     58  48  69 NW3       29.91R
FREEPORT*      CLEAR     57  46  67 W5        29.92S
ROCHELLE*      CLEAR     61  47  59 W9        29.91S
DE KALB*       PTCLDY    62  46  57 W9        29.90S
PERU*          CLEAR     61  45  55 W8        29.92S
$$

ILZ005-006-012>014-019>023-300500-
NORTHEAST ILLINOIS

CITY           SKY/WX    TMP DP  RH WIND       PRES   REMARKS
CHICAGO-OHARE  PTCLDY    62  46  55 SW3       29.88R
CHICAGO-MIDWAY PTCLDY    65  46  50 SW7       29.88S
AURORA         MOCLDY    65  45  48 SW9       29.90R
LANSING*       CLEAR     57  50  77 S3        29.90S
JOLIET*        MOCLDY    64  48  54 W5        29.91R
WAUKEGAN       CLOUDY    57  53  86 N3        29.86S
DUPAGE AIRPORT MOCLDY    62  48  60 W9        29.88R
KANKAKEE*      CLEAR     58  45  60 CALM      29.92S
WHEELING       PTCLDY    60  49  66 N5        29.90R
MORRIS*        PTCLDY    61  46  57 CALM      29.90S
ROMEOVILLE*    MOCLDY    62  50  64 W16G25    29.91R
NORTHERLY ISL    N/A     68  43  40 CALM        N/A
$$

LMZ740>746-300500-
SOUTHERN LAKE MICHIGAN

STATION/POSITION SKY/WX   TEMP    WIND        PRES    VSBY  WAVE
                          AIR SEA DIR/SP/G                  HT/PER
                          (F)     (DEG/KT/KT) (MB)    (MI)  (FT/S)
SOUTHERN BUOY              52 48  240/  4/  4 1011.6          1/ 4
WILMETTE HARBOR            58 54  310/ 10/ 14   N/A           1
HARRISON CRIB              70     260/  8/  9   N/A
BURNHAM HARBOR             67     260/  3/  6   N/A
CALUMET HARBOR             67     210/  2/  3 1011.6R
BURNS HARBOR               64     220/  4/  5 1012.9R
MICHIGAN CITY              63     190/  3/  4   N/A
MICHIGAN CITY 6N           59 56  210/  6/  8   N/A           1/ 4
ST. JOSEPH                 60 59  200/  6/  6 1012.2R         2/ 4
$$

ILZ025>027-034>036-040-047-049-050-058-095>099-300500-
WEST-CENTRAL ILLINOIS

CITY           SKY/WX    TMP DP  RH WIND       PRES   REMARKS
QUINCY         PTCLDY    64  45  49 W3        29.98R
GALESBURG*     CLEAR     61  44  53 W5        29.94S
MACOMB*        CLEAR     58  45  60 W7        29.97S
JACKSONVILLE*  MOCLDY    63  49  60 W6        29.97S
PITTSFIELD*    MOCLDY    65  51  58 W3        30.00R
$$

ILZ028>032-037-038-041>044-048-051>054-059>061-300500-
CENTRAL ILLINOIS

CITY           SKY/WX    TMP DP  RH WIND       PRES   REMARKS
PONTIAC        CLEAR     64  48  57 SW6       29.93S
BLOOMINGTON    PTCLDY    64  44  48 SW6       29.96R
DECATUR        PTCLDY    63  48  58 SW3       29.96R
PEORIA         CLEAR     61  46  57 W5        29.94R
LACON*         PTCLDY    60  47  63 CALM      29.92S
LINCOLN*       PTCLDY    68  45  43 CALM      29.95S
SPRINGFIELD    PTCLDY    67  47  48 W6        29.97R
TAYLORVILLE    PTCLDY    61  54  77 CALM      29.97S
$$

ILZ033-039-045-046-055>057-062-063-300500-
EAST-CENTRAL ILLINOIS

CITY           SKY/WX    TMP DP  RH WIND       PRES   REMARKS
CHAMPAIGN      PTCLDY    63  46  54 CALM      29.95S
RANTOUL*       PTCLDY    62  51  66 W3        29.95R
MATTOON        CLEAR     63  54  72 W5        29.96R
PARIS*         CLEAR     64  56  76 W5        29.97R
$$

ILZ079-100>102-300500-
SOUTHWEST ILLINOIS

CITY           SKY/WX    TMP DP  RH WIND       PRES   REMARKS
ALTON          CLEAR     60  57  92 CALM      29.99R
BELLEVILLE     CLEAR     62  61  96 CALM      29.99R
CAHOKIA*       PTCLDY    63  61  93 CALM      29.98R
SPARTA*        CLEAR     65  59  79 CALM      30.00R
$$

ILZ064>066-069>071-074>076-080>082-084>086-088>090-092>094-300500-
SOUTH-CENTRAL ILLINOIS

CITY           SKY/WX    TMP DP  RH WIND       PRES   REMARKS
CARBONDALE     CLEAR     65  60  84 CALM      29.99R
CAIRO*         CLOUDY    75  60  60 SW8       29.98R
EFFINGHAM*     CLEAR     58  58 100 CALM      29.99R
MARION         CLEAR     63  63 100 CALM      30.00R
MT. VERNON     FOG       59  59 100 CALM      29.99R VSB 1/4
CENTRALIA*     CLEAR     66  59  77 CALM      29.98R
SALEM*         CLEAR     64  60  85 CALM      29.98R
$$

ILZ067-068-072-073-078-083-087-091-300500-
SOUTHEAST ILLINOIS

CITY           SKY/WX    TMP DP  RH WIND       PRES   REMARKS
LAWRENCEVILLE  CLEAR     65  54  67 NW6       29.97R
FLORA*         CLEAR     65  57  75 W5        29.98R
FAIRFIELD*     CLEAR     63  59  87 CALM      29.98R
HARRISBURG*    CLOUDY    64  63  94 W3        29.99R
ROBINSON*      CLEAR     62  55  76 W6        29.97R
CARMI*         MOCLDY    64  61  90 CALM      29.98R
$$

ABBREVIATIONS USED IN REMARKS
   TC - TEMPERATURE IN CELSIUS
  WCI - WIND CHILL INDEX
   HX - HEAT INDEX
  VSB - VISIBILITY
$$





USA.gov is the U.S. government's official web portal to all federal, state and local government web resources and services.